Sigfox identifier Datetime Temperature Humidity SNR
0038678C 2018-10-09 09:14:50 21.2 38 14.8
0038678C 2018-10-09 08:06:40 21.3 37 14.8
0038678C 2018-10-09 06:58:34 21.3 37 14.8
0038678C 2018-10-09 05:50:29 21.2 37 14.8
0038678C 2018-10-09 04:42:20 21.2 37 14.6
0038678C 2018-10-09 01:18:01 21.2 37 14
0038678C 2018-10-09 00:09:51 21.2 37 13.6
0038678C 2018-10-08 23:01:43 21.2 36 13.7
0038678C 2018-10-08 21:53:37 21.2 36 13.6
0038678C 2018-10-08 20:45:27 21.2 36 13.5
0038678C 2018-10-08 19:37:19 21.1 36 13.3
0038678C 2018-10-08 18:29:13 21 36 13.3
0038678C 2018-10-08 17:21:01 21 36 13.5
0038678C 2018-10-08 16:12:53 21 36 13.6
0038678C 2018-10-08 11:40:30 20.8 36 13.6
0038678C 2018-10-08 09:24:18 20.8 36 13.6
0038678C 2018-10-08 08:16:09 20.8 36 13.4
0038678C 2018-10-08 07:08:05 20.8 36 13.5
0038678C 2018-10-08 05:59:59 20.8 36 13.8
0038678C 2018-10-08 04:51:53 20.8 37 13.8
0038678C 2018-10-08 03:43:46 20.9 37 13.6
0038678C 2018-10-08 02:35:41 20.9 37 14
0038678C 2018-10-08 01:27:35 20.9 37 13.9
0038678C 2018-10-08 00:19:32 21 37 14.1
0038678C 2018-10-07 23:11:20 21 37 14.2
0038678C 2018-10-07 20:55:07 21 38 14
0038678C 2018-10-07 19:46:56 21 38 14.2
0038678C 2018-10-07 18:38:48 21 38 14.4
0038678C 2018-10-07 17:30:39 21 38 14.5
0038678C 2018-10-07 16:22:31 21 38 14.4
0038678C 2018-10-07 15:14:23 21 38 14.4
0038678C 2018-10-07 14:06:15 21 38 14.5
0038678C 2018-10-07 12:58:06 21 38 14.5
0038678C 2018-10-07 11:49:59 21 38 14.3
0038678C 2018-10-07 10:41:56 21 38 14.2
0038678C 2018-10-07 09:33:53 21 38 14.3
0038678C 2018-10-07 08:25:39 21.1 38 14.5
0038678C 2018-10-07 07:17:33 21.1 38 14.3
0038678C 2018-10-07 06:09:21 21.2 38 14.3
0038678C 2018-10-07 05:01:12 21.2 38 14.1
0038678C 2018-10-07 02:44:56 21.2 38 13.9
0038678C 2018-10-07 01:36:50 21.2 38 13.8
0038678C 2018-10-07 00:28:45 21.2 38 13.9
0038678C 2018-10-06 23:20:34 21.2 38 13.8
0038678C 2018-10-06 21:04:15 21.2 38 13.9
0038678C 2018-10-06 19:56:04 21.2 38 14.1
0038678C 2018-10-06 18:47:53 21.2 38 14.4
0038678C 2018-10-06 17:39:44 21.2 38 15
0038678C 2018-10-06 15:23:28 21.3 38 14.7
0038678C 2018-10-06 14:15:21 21.3 38 14.8
0038678C 2018-10-06 13:07:15 21.3 38 14.8
0038678C 2018-10-06 11:59:09 21.3 39 15.3
0038678C 2018-10-06 10:51:02 21.3 39 15
0038678C 2018-10-06 09:42:55 21.4 39 15
0038678C 2018-10-06 08:34:46 21.4 39 15.3
0038678C 2018-10-06 07:26:40 21.4 39 15.5
0038678C 2018-10-06 06:18:33 21.4 39 15.4
0038678C 2018-10-06 05:10:27 21.4 39 15.4
0038678C 2018-10-06 04:02:22 21.4 39 15.4
0038678C 2018-10-06 02:54:13 21.5 39 15.4
0038678C 2018-10-06 00:37:54 21.6 39 15.5
0038678C 2018-10-05 22:21:37 21.7 39 15.6
0038678C 2018-10-05 21:13:25 21.6 39 15.6
0038678C 2018-10-05 20:05:15 21.6 39 15.6
0038678C 2018-10-05 18:57:06 21.6 39 15.9
0038678C 2018-10-05 17:48:59 21.5 38 18.9
0038678C 2018-10-05 16:40:50 21.4 38 19
0038678C 2018-10-05 15:32:48 21.4 38 19.1
0038678C 2018-10-05 14:24:39 21.4 37 19.2
0038678C 2018-10-05 13:16:33 21.3 37 19.2
0038678C 2018-10-05 12:08:27 21.3 37 19.2
0038678C 2018-10-05 11:00:14 21.2 34 19
0038678C 2018-10-05 09:52:05 21 34 19
0038678C 2018-10-05 08:43:55 21 32 19
0038678C 2018-10-05 07:35:45 21 31 19
0038678C 2018-10-05 06:27:39 21 30 19.1
0038678C 2018-10-05 05:19:30 21 30 19.1
0038678C 2018-10-05 04:11:22 21 30 19.2
0038678C 2018-10-05 03:03:15 21 30 19.4
0038678C 2018-10-05 01:55:07 21 31 19.4
0038678C 2018-10-05 00:47:00 21 31 19.5
0038678C 2018-10-04 23:38:49 21.1 31 21.1
0038678C 2018-10-04 22:30:39 21 32 21.1
0038678C 2018-10-04 21:22:29 21 31 21.1
0038678C 2018-10-04 20:14:20 21 32 21.2
0038678C 2018-10-04 19:06:11 21 32 21.1
0038678C 2018-10-04 17:58:04 21 31 21.1
0038678C 2018-10-04 16:49:56 20.8 32 22.2
0038678C 2018-10-04 15:41:49 20.8 33 22.3
0038678C 2018-10-04 13:25:31 20.6 34 22.2
0038678C 2018-10-04 11:09:14 20.6 35 21.1
0038678C 2018-10-04 10:01:07 20.6 35 21
0038678C 2018-10-04 08:53:03 20.6 35 20.8
0038678C 2018-10-04 07:44:53 20.6 36 20.7
0038678C 2018-10-04 06:36:46 20.6 38 20.7
0038678C 2018-10-04 05:28:36 20.6 38 20.7
0038678C 2018-10-04 04:20:27 20.6 38 20.7
0038678C 2018-10-04 03:12:19 20.6 39 20.6
0038678C 2018-10-04 02:04:12 20.6 39 20.6
0038678C 2018-10-04 00:56:01 20.6 40 20.5
0038678C 2018-10-03 23:47:54 20.7 40 20.5
0038678C 2018-10-03 22:39:43 20.8 40 66.1
0038678C 2018-10-03 21:31:33 20.8 41 66.1
0038678C 2018-10-03 20:23:24 20.8 41 66.1
0038678C 2018-10-03 19:15:15 20.8 41 66.1
0038678C 2018-10-03 18:07:07 20.8 41 66.1
0038678C 2018-10-03 16:58:59 20.8 42 66.1
0038678C 2018-10-03 15:50:52 20.8 42 66.1
0038678C 2018-10-03 14:42:43 20.9 43 66.1
0038678C 2018-10-03 13:34:31 20.7 44 66.1
0038678C 2018-10-03 12:26:25 20.6 41 66.1
0038678C 2018-10-03 11:18:13 20.7 42 66.1
0038678C 2018-10-03 09:01:56 20.3 41 66.1
0038678C 2018-10-03 07:53:42 20.4 40 66.1
0038678C 2018-10-03 06:45:31 20.4 41 66.1
0038678C 2018-10-03 05:37:22 20.4 41 66.1
0038678C 2018-10-03 04:29:12 20.4 42 66.1
0038678C 2018-10-03 03:21:02 20.5 42 66.1
0038678C 2018-10-03 02:12:51 20.6 42 66.1
0038678C 2018-10-03 01:04:42 20.5 42 66.3
0038678C 2018-10-02 23:56:33 20.6 42 66.5
0038678C 2018-10-02 22:48:23 20.6 42 66.7
0038678C 2018-10-02 21:40:12 20.6 41 66.9
0038678C 2018-10-02 20:32:02 20.7 41 67.1
0038678C 2018-10-02 19:23:51 20.8 41 67.3
0038678C 2018-10-02 14:51:24 21 40 67.6
0038678C 2018-10-02 13:43:11 20.8 41 16
0038678C 2018-10-02 12:35:04 20.8 40 15.5
0038678C 2018-10-02 11:26:59 20.7 45 15.6
0038678C 2018-10-02 10:18:52 20.6 44 15.8
0038678C 2018-10-02 08:02:43 20.4 42 15.7
0038678C 2018-10-02 06:54:37 20.4 43 16
0038678C 2018-10-02 05:46:30 20.4 44 16.4
0038678C 2018-10-02 04:38:28 20.4 44 16.1
0038678C 2018-10-02 03:30:22 20.4 44 16
0038678C 2018-10-02 02:22:11 20.4 44 16.5
0038678C 2018-10-02 01:14:03 20.5 44 16.1
0038678C 2018-10-02 00:05:58 20.5 44 15.9
0038678C 2018-10-01 22:57:51 20.6 44 16.3
0038678C 2018-10-01 21:49:43 20.5 44 16.8
0038678C 2018-10-01 20:41:39 20.4 44 16.8
0038678C 2018-10-01 19:33:27 20.4 44 15.4
0038678C 2018-10-01 18:25:18 20.2 45 11.3
0038678C 2018-10-01 16:09:00 15.3 67 0